Syracuse, NY

10:59 PM EST on February 17, 2018 (GMT -0500)
Syracuse Hancock International

Weather History for KSYR - May, 2013

Change the Weather History Date:

Wednesday, May 8, 2013

  Actual Average Record
Temperature  
Mean Temperature 61 °F 55 °F  
Max Temperature 69 °F 66 °F 90 °F (2015)
Min Temperature 53 °F 44 °F 28 °F (1956)
Degree Days  
Heating Degree Days 4 10  
Month to date heating degree days 22 90  
Since 1 July heating degree days 5919 6425  
Cooling Degree Days 0 0  
Month to date cooling degree days 1 0  
Year to date cooling degree days 1 4  
Growing Degree Days 11 (Base 50)    
Moisture  
Dew Point 56 °F    
Average Humidity 78    
Maximum Humidity 93    
Minimum Humidity 63    
Precipitation  
Precipitation 0.16 in 0.10 in 1.09 in (2012)
Month to date precipitation 0.16 0.79  
Year to date precipitation 10.19 11.50  
Snow  
Snow 0.00 in 0.00 in T in (1983)
Month to date snowfall 0.0 0.1  
Since 1 July snowfall 115.4 123.8  
Snow Depth 0.00 in    
Sea Level Pressure  
Sea Level Pressure 30.01 in    
Wind  
Wind Speed 7 mph (East)    
Max Wind Speed 14 mph    
Max Gust Speed 17 mph    
Visibility 9 miles    
Events Rain    
T = Trace of Precipitation, MM = Missing Value Source: NWS Daily Summary

Daily Weather History Graph

Daily Weather History Graph

Search for Another Location

Airport or City:

Trip Planner

Search our weather history database for the weather conditions in past years. The results will help you decide how hot, cold, wet, or windy it might be!

Date:

Astronomy

May. 08, 2013 Rise Set
Actual Time 5:48 AM EDT 8:13 PM EDT
Civil Twilight 5:16 AM EDT 8:45 PM EDT
Nautical Twilight 4:37 AM EDT 9:25 PM EDT
Astronomical Twilight 3:52 AM EDT 10:10 PM EDT
Moon 4:57 AM EDT (5/8) 7:08 PM EDT (5/8)
Length of Visible Light 15h 29m
Length of Day
14h 25m
Waning Crescent, 2% of the Moon is Illuminated
May 8
Waning Crescent
May 9
New
May 18
First Quarter
May 25
Full
May 31
Last Quarter

Hourly Weather History & Observations

Time (EDT) Temp. Dew Point Humidity Pressure Visibility Wind Dir Wind Speed Gust Speed Precip Events Conditions
12:54 AM 60.1 °F 48.9 °F 67% 30.05 in 10.0 mi East 5.8 mph - N/A   Scattered Clouds
1:54 AM 55.9 °F 50.0 °F 80% 30.04 in 10.0 mi ENE 5.8 mph - N/A   Scattered Clouds
2:54 AM 57.0 °F 48.9 °F 74% 30.04 in 10.0 mi ENE 4.6 mph - N/A   Mostly Cloudy
3:54 AM 55.9 °F 50.0 °F 80% 30.04 in 10.0 mi East 6.9 mph - N/A   Mostly Cloudy
4:54 AM 55.0 °F 48.0 °F 77% 30.05 in 10.0 mi East 6.9 mph - N/A   Mostly Cloudy
5:54 AM 54.0 °F 48.0 °F 80% 30.05 in 10.0 mi East 6.9 mph - N/A   Scattered Clouds
6:54 AM 55.9 °F 50.0 °F 80% 30.06 in 10.0 mi East 8.1 mph - N/A   Mostly Cloudy
7:54 AM 57.9 °F 52.0 °F 81% 30.08 in 10.0 mi East 5.8 mph - 0.00 in   Mostly Cloudy
8:54 AM 62.1 °F 53.1 °F 72% 30.08 in 10.0 mi East 3.5 mph - N/A   Overcast
9:54 AM 66.0 °F 54.0 °F 65% 30.06 in 10.0 mi ENE 3.5 mph - N/A   Overcast
10:54 AM 64.9 °F 57.0 °F 75% 30.06 in 9.0 mi East 6.9 mph - 0.00 in Rain Light Rain
11:54 AM 68.0 °F 57.0 °F 68% 30.04 in 10.0 mi NE 8.1 mph - 0.00 in   Overcast
12:54 PM 68.0 °F 57.0 °F 68% 30.03 in 10.0 mi East 6.9 mph - 0.00 in Rain Light Rain
1:54 PM 63.0 °F 60.1 °F 90% 30.04 in 3.0 mi East 10.4 mph 17.3 mph 0.04 in Rain Rain
2:15 PM 64.4 °F 60.8 °F 88% 30.04 in 10.0 mi East 8.1 mph - 0.02 in   Overcast
2:54 PM 64.9 °F 61.0 °F 87% 30.02 in 8.0 mi Calm Calm - 0.03 in Rain Light Rain
3:14 PM 64.4 °F 60.8 °F 88% 30.02 in 4.0 mi SSE 3.5 mph - 0.04 in Rain Light Rain
3:24 PM 64.4 °F 60.8 °F 88% 30.02 in 9.0 mi East 10.4 mph - 0.04 in Rain Light Rain
3:35 PM 64.4 °F 60.8 °F 88% 30.01 in 10.0 mi East 6.9 mph - 0.05 in Rain Light Rain
3:54 PM 64.0 °F 60.1 °F 87% 29.99 in 10.0 mi ENE 5.8 mph - 0.07 in Rain Light Rain
4:54 PM 66.0 °F 60.1 °F 81% 29.98 in 10.0 mi East 9.2 mph - 0.00 in   Overcast
5:54 PM 66.0 °F 59.0 °F 78% 29.97 in 10.0 mi East 9.2 mph - 0.00 in Rain Light Rain
6:26 PM 64.4 °F 59.0 °F 83% 29.97 in 8.0 mi ENE 8.1 mph - 0.01 in Rain Light Rain
6:34 PM 62.6 °F 59.0 °F 88% 29.96 in 10.0 mi NE 6.9 mph - 0.02 in Rain Light Rain
6:54 PM 64.0 °F 59.0 °F 84% 29.95 in 10.0 mi ENE 9.2 mph - 0.02 in   Overcast
7:54 PM 62.1 °F 57.9 °F 86% 29.92 in 10.0 mi NE 8.1 mph - N/A   Overcast
8:54 PM 62.1 °F 57.9 °F 86% 29.93 in 10.0 mi ENE 5.8 mph - N/A   Overcast
9:54 PM 62.1 °F 57.9 °F 86% 29.94 in 10.0 mi ENE 8.1 mph - N/A   Mostly Cloudy
10:54 PM 61.0 °F 57.9 °F 90% 29.94 in 10.0 mi East 8.1 mph - N/A   Overcast
11:54 PM 61.0 °F 55.9 °F 83% 29.93 in 10.0 mi ESE 6.9 mph - 0.00 in Rain Light Rain